Regional Weather Roundup
Issued by NWS

Home | Current Version | Previous Version | Graphics & Text | Print | Product List | Glossary On
Versions: 1 2 3 4 5 6 7 8 9 10 11 12 13 14 15 16 17 18 19 20 21 22 23 24 25 26 27
000
ASUS45 KCYS 302310
RWRWY

WYOMING REGIONAL WEATHER ROUNDUP
NATIONAL WEATHER SERVICE CHEYENNE WY
500 PM MDT SAT APR 30 2016

NOTE:  "FAIR" INDICATES FEW OR NO CLOUDS BELOW 12,000 FEET
WITH NO SIGNIFICANT WEATHER AND/OR OBSTRUCTIONS TO VISIBILITY.

WYZ001-010000-
YELLOWSTONE NATIONAL PARK

CITY           SKY/WX    TMP DP  RH WIND       PRES   REMARKS
LK YELLOWSTONE   N/A     38  24  57 VRB3      30.16R
W YELLOWSTONE  NOT AVBL

$$
WYZ002>013-054>058-071-098>099-010000-
NORTHERN WYOMING

CITY           SKY/WX    TMP DP  RH WIND       PRES   REMARKS
JACKSON        PTSUNNY   50  28  43 N16       30.02F
CODY           CLOUDY    45  30  57 NW12G21   30.17S
GREYBULL       FAIR      56  25  30 E16G29    30.10R
WORLAND        CLOUDY    48  39  71 SW16      30.13R
SHERIDAN       CLOUDY    49  34  56 CALM      30.21R
BUFFALO          N/A    N/A N/A N/A MISG      30.20R
GILLETTE       PTSUNNY   47  33  58 NE14      30.16R
HULETT         MOCLDY    50  32  50 NE14G22   30.16R
NEWCASTLE      FAIR      46  28  49 N13       30.13R

$$
WYZ014>020-022>026-101>103-010000-
CENTRAL WYOMING

CITY           SKY/WX    TMP DP  RH WIND       PRES   REMARKS
BIG PINEY      CLOUDY    42  33  70 S21       30.08R
PINEDALE       CLOUDY    41  32  70 S18       30.08R
DUBOIS         CLOUDY    39  30  70 SE21G26   30.11R WCI  29
LANDER         LGT RAIN  36  34  92 W5        30.15R FOG     WCI  32
RIVERTON       CLOUDY    42  36  79 E14       30.16R
CASPER         CLOUDY    40  31  70 NE18      30.13R WCI  31
DOUGLAS        CLOUDY    40  33  76 NE10      30.14R WCI  33

$$
WYZ021-027>030-104>119-010000-
SOUTHERN WYOMING

CITY           SKY/WX    TMP DP  RH WIND       PRES   REMARKS
EVANSTON       CLOUDY    39  31  72 E21G26    30.06R WCI  29
KEMMERER       LGT SNOW  36  34  93 E16       30.09R WCI  26
FORT BRIDGER   FLURRIES  37  37 100 E20G29    30.11R WCI  27
ROCK SPRINGS   PTSUNNY   38  30  73 NE21G29   30.09R WCI  28
DIXON          FAIR      42  23  47 NE23G30   30.04R
RAWLINS        CLOUDY    34  31  88 E9        30.09S FOG     WCI  27
SARATOGA       CLOUDY    36  27  69 E16G23    30.08R WCI  26
LARAMIE        CLOUDY    31  25  78 NE14      30.07R WCI  21
CHEYENNE       LGT SNOW  33  30  88 N16G29    30.05S VSB 3/4 WCI  23
TORRINGTON     LGT RAIN  38  35  89 N15       30.07S WCI  29
PINE BLUFFS    LGT SNOW  32  32 100 N17       30.05R WCI  21

$$




USA.gov is the U.S. government's official web portal to all federal, state and local government web resources and services.